• Processing (Info)

  • MPEC 1994-S01 : 1994 PN

    The following Minor Planet Electronic Circular may be linked-to from your own Web pages, but must not otherwise be redistributed electronically.

    A form allowing access to any MPEC is at the bottom of this page.


    Read MPEC 1994-R06 Read MPEC 1994-S02


    M.P.E.C. 1994-S01                                Issued 1994 Sept. 16, 18:08 UT
    
         The Minor Planet Electronic Circulars contain information on unusual
             minor planets and routine data on comets.  They are published
       on behalf of Commission 20 of the International Astronomical Union by the
              Minor Planet Center, Smithsonian Astrophysical Observatory,
                              Cambridge, MA 02138, U.S.A.
    
              MARSDEN@CFA or WILLIAMS@CFA (.HARVARD.EDU, .SPAN or .BITNET)
    
                                        1994 PN
    
    Additional observations:
         J94P00N   1994 08 12.33856 15 54 13.08 -05 23 48.4          18.8        474
         J94P00N   1994 08 12.35940 15 54 12.69 -05 25 00.2                      474
         J94P00N  C1994 08 28.38104 15 55 51.69 -20 16 39.2                      413
         J94P00N  C1994 08 28.38415 15 55 51.76 -20 16 48.9                      413
         J94P00N  C1994 08 28.48062 15 55 54.13 -20 21 55.7                      413
         J94P00N  C1994 08 28.48284 15 55 54.19 -20 22 02.9                      413
         J94P00N  C1994 08 31.47569 15 57 27.45 -22 59 47.2          18.2 V      360
         J94P00N  C1994 08 31.47847 15 57 27.55 -22 59 53.9                      360
    
    Observer details:
    360 Kuma Kogen.  Observer A. Nakamura.  0.60-m f/6.0 Ritchey-Chretien + CCD.
    413 Siding Spring Observatory.  Observers R. H. McNaught, G. J. Garradd.
        1.0-m reflector + CCD.
    474 Mount John Observatory, Lake Tekapo.  Observer A. C. Gilmore.  Measurer
        P. M. Kilmartin.  0.6-m f/14 Cassegrain reflector.
    
    Orbital elements:
    1994 PN
    Epoch 1994 Aug. 16.0 TT = JDT 2449580.5                 Williams
    M 341.37702              (2000.0)            P               Q
    n   0.27114644     Peri.  234.04535     +0.74861014     +0.05466751
    a   2.3641051      Node   113.28407     -0.05926367     +0.99812301
    e   0.5382944      Incl.   45.99988     -0.66035647     -0.02760295
    P   3.63           H    16.0          G   0.15
    From 29 observations 1994 Aug. 7-31.
    
    Ephemeris:
    1994 PN                  a,e,i = 2.36, 0.54, 46                  q = 1.0915
    Date    TT    R. A. (2000) Decl.     Delta      r     Elong.  Phase     V
    1994 09 15    16 10.31   -34 54.9    0.926    1.185    75.6    55.3    18.2
    1994 09 25    16 24.46   -42 20.4    0.969    1.144    70.9    55.9    18.3
    1994 10 05    16 43.78   -49 09.9    1.007    1.114    67.4    56.0    18.3
    1994 10 15    17 10.07   -55 24.2    1.039    1.097    65.1    55.6    18.3
    1994 10 25    17 46.54   -60 59.3    1.061    1.092    64.1    55.0    18.3
    1994 11 04    18 38.53   -65 39.0    1.073    1.100    64.2    54.3    18.3
    1994 11 14    19 51.83   -68 47.0    1.077    1.121    65.6    53.5    18.4
    1994 11 24    21 23.67   -69 25.0    1.075    1.154    67.9    52.4    18.4
    1994 12 04    22 54.55   -66 52.4    1.072    1.197    71.0    51.1    18.4
    1994 12 14    00 06.72   -61 29.8    1.072    1.248    74.6    49.5    18.5
    1994 12 24    00 59.31   -54 10.1    1.084    1.306    78.2    47.5    18.5
    1995 01 03    01 38.41   -45 42.5    1.113    1.369    81.3    45.2    18.6
    1995 01 13    02 09.28   -36 49.6    1.165    1.435    83.4    42.9    18.8
    1995 01 23    02 35.18   -28 06.9    1.241    1.504    84.2    40.6    19.0
    1995 02 02    02 58.06   -20 00.2    1.342    1.575    83.6    38.5    19.2
    1995 02 12    03 19.11   -12 44.3    1.465    1.646    81.8    36.4    19.4
    1995 02 22    03 39.03   -06 24.3    1.607    1.717    78.9    34.4    19.6
    1995 03 04    03 58.24   -00 58.4    1.763    1.789    75.2    32.4    19.9
    1995 03 14    04 17.04   +03 38.3    1.929    1.859    70.9    30.4    20.1
    1995 03 24    04 35.57   +07 31.9    2.101    1.929    66.2    28.2    20.3
    1995 04 03    04 53.93   +10 48.5    2.276    1.998    61.3    26.0    20.5
    
                           (Last issue was M.P.E.C. 1994-R06)
    
    Gareth V. Williams                                            M.P.E.C. 1994-S01
    

    Read MPEC 1994-R06 Read MPEC 1994-S02


    MPEC number:

    Enter an MPEC number in one of the following forms:

    • 1997-B01 (the full form)
    • J97B01 (the packed version of the full form)
    • B01 (the abbreviated form)